Location: Condor
(52.3263°N, 114.5541°W)
Time: 22:29:44
(UTC+00:00)

Oscar 19 - Pass Details

Date: 14 December 2023
Orbit: 771 x 789 km, 98.9° (Epoch: 04 March)

Event Time Altitude Azimuth Distance (km) Brightness Sun altitude
Rises 00:01:19 0° 188° (S) 3,235 14.5 -5.4°
Reaches altitude 10° 00:03:47 10° 197° (SSW) 2,314 13.9 -5.7°
Maximum altitude 00:08:28 36° 263° (W) 1,214 12.4 -6.3°
Drops below altitude 10° 00:13:12 10° 330° (NNW) 2,338 13.1 -6.9°
Sets 00:15:43 0° 339° (NNW) 3,273 13.8 -7.3°
